Flag for Norway Weather past 2 weeks in Vadsø, Norway

Now
34 °F

Partly sunny.


Feels Like: 25 °F
Forecast: 26 / 37 °F
Wind: 13 mph from Northwest

Location: Vadso

Current Time: Apr 25, 2015 at 1:08:34 PM

Latest Report: Apr 25, 2015 at 11:50 AM


Visibility: N/A

Pressure: 29.86 "Hg

Humidity: 75%

Dew point: 27 °F

Location of VadsøLocation

Historic Weather in Vadsø — Graph

°F

Vadsø temperature yesterday

Maximum temperature yesterday: 32 °F (at 9:50 AM)
Minimum temperature yesterday: 28 °F (at 4:50 AM)
Average temperature yesterday: 30 °F

Past Weeks' High & Low Weather Summary

 TemperatureHumidityPressure
High43 °F (Apr 21, 11:50 AM)100% (Apr 14, 10:50 PM)29.98 "Hg (Apr 14, 10:50 PM)
Low27 °F (Apr 11, 12:50 AM)56% (Apr 20, 11:50 AM)29.18 "Hg (Apr 23, 4:50 AM)
Average35 °F83%29.63 "Hg
* Reported Apr 10 11:50 AM — Apr 25 11:50 AM, Vadsø, Weather by CustomWeather, © 2015

Note: Actual official high and low records may vary slightly from our data, if they occured in-between our weather recording intervals... More about our weather records

Advertising

Vadsø weather history for previous 24 hours

 ConditionsComfort  
Time TempWeatherWind HumidityBarometerVisibility
11:50 AM
Sat, Apr 25
34 °FPartly sunny.9 mph75%29.86 "HgN/A
10:50 AM34 °FScattered showers. Broken clouds.8 mph75%29.83 "HgN/A
9:50 AM34 °FScattered showers. Partly sunny.8 mph75%29.83 "HgN/A
8:50 AM32 °FScattered showers. Partly sunny.7 mph80%29.83 "HgN/A
8:20 AM32 °FScattered showers. Partly sunny.7 mph80%29.80 "HgN/A
6:50 AM30 °FScattered showers. Partly sunny.15 mph75%29.80 "HgN/A
6:20 AM30 °FScattered showers. Partly sunny.16 mph75%29.77 "HgN/A
12:50 AM28 °FSnow flurries. Partly cloudy.10 mph86%29.74 "HgN/A
11:50 PM
Fri, Apr 24
28 °FSnow flurries. Partly cloudy.12 mph80%29.74 "HgN/A
10:50 PM30 °FSnow flurries. Partly cloudy.12 mph69%29.74 "HgN/A
9:50 PM28 °FScattered showers. Partly cloudy.8 mph86%29.74 "HgN/A
8:50 PM28 °FSnow flurries. Partly cloudy.10 mph86%29.71 "Hg4 mi
7:50 PM28 °FSnow flurries. Passing clouds.8 mph86%29.71 "HgN/A
6:50 PM28 °FScattered showers. Partly sunny.9 mph80%29.71 "HgN/A
5:50 PM30 °FScattered showers. Partly sunny.12 mph69%29.68 "HgN/A
4:50 PM30 °FPartly sunny.12 mph69%29.68 "HgN/A
3:50 PM30 °FSnow flurries. Ice fog.16 mph75%29.68 "HgN/A
2:50 PM32 °FScattered showers. Broken clouds.15 mph80%29.65 "HgN/A
1:50 PM32 °FScattered showers. Broken clouds.15 mph64%29.65 "HgN/A
Weather by CustomWeather, © 2015

See weather overviewHow to use our weather pages